Regional Weather Roundup
Issued by NWS

Home | Current Version | Previous Version | Text Only | Print | Product List | Glossary Off
Versions: 1 2 3 4 5 6 7 8 9 10 11 12 13 14 15 16 17 18 19 20 21 22 23 24 25 26 27 28 29 30 31 32 33 34 35 36 37 38 39 40 41 42 43 44 45 46 47 48 49 50

000
ASUS43 KMKX 280000
RWRWI

WISCONSIN REGIONAL WEATHER ROUNDUP
NATIONAL WEATHER SERVICE MILWAUKEE/SULLIVAN WI
700 PM CDT THU APR 27 2017

NOTE: "FAIR" INDICATES FEW OR NO CLOUDS BELOW 12,000 FEET WITH NO
SIGNIFICANT WEATHER AND/OR OBSTRUCTIONS TO VISIBILITY.

WIZ001-002-006>008-014>016-023>028-280100-
NORTHWEST WISCONSIN

CITY           SKY/WX    TMP DP  RH WIND       PRES   REMARKS
SUPERIOR ARPT  CLOUDY    32  22  68 W12       29.61R WCI  23
ASHLAND        CLOUDY    30  22  72 W10       29.60R WCI  21
6HR MIN TEMP:  27; 6HR MAX TEMP:  30;

HAYWARD        CLOUDY    30  21  69 W6        29.61R WCI  24
6HR MIN TEMP:  28; 6HR MAX TEMP:  30;

SIREN          CLOUDY    31  23  71 W9        29.64R WCI  23
CUMBERLAND     CLOUDY    30  23  74 W13       29.63R WCI  20
RICE LAKE      CLOUDY    31  26  78 W12       29.64R WCI  22
CHETEK         NOT AVBL
LADYSMITH      CLOUDY    31  27  84 W12       29.62R WCI  22
EAU CLAIRE     NOT AVBL
MENOMONIE      CLOUDY    34  27  74 W10G16    29.65R WCI  26
NEW RICHMOND   CLOUDY    32  23  70 NW13      29.66R WCI  22
OSCEOLA        CLOUDY    32  24  73 W10       29.69R WCI  24
$$

WIZ003>005-009-010-017-018-280100-
NORTH CENTRAL WISCONSIN

CITY           SKY/WX    TMP DP  RH WIND       PRES   REMARKS
MANITOWISH WTR NOT AVBL
ARBOR VITAE    LGT SNOW  32  28  86 W5        29.54R WCI  27
WOODRUFF       LGT SNOW  32  28  86 W5        29.54R WCI  27
RHINELANDER    CLOUDY    30  27  88 W13       29.56R WCI  20
6HR MIN TEMP:  29; 6HR MAX TEMP:  31; 6HR PCP:  0.06;

EAGLE RIVER    LGT SNOW  28  24  82 W12G18    29.54R WCI  18
LAND O LAKES   CLOUDY    29  25  83 W9G18     29.54R WCI  21
PHILLIPS       CLOUDY    28  25  87 W7        29.57R WCI  21
TOMAHAWK       CLOUDY    30  25  83 W7        29.58R WCI  23
MEDFORD        CLOUDY    30  26  84 W13       29.60R WCI  20
MERRILL        CLOUDY    32  30  92 W10       29.59R WCI  23
$$

WIZ029-030-035-036-043>047-280100-
CENTRAL WISCONSIN

CITY           SKY/WX    TMP DP  RH WIND       PRES   REMARKS
WAUSAU         CLOUDY    32  29  88 W13       29.60R WCI  22
6HR MIN TEMP:  30; 6HR MAX TEMP:  33; 6HR PCP:  0.01;

MOSINEE        CLOUDY    34  30  86 W9        29.62R WCI  26
MARSHFIELD     CLOUDY    33  28  81 W13       29.61R WCI  24
6HR MIN TEMP:  32; 6HR MAX TEMP:  35; 6HR PCP: TRACE;

STEVENS POINT  CLOUDY    34  31  88 W7        29.62R WCI  28
WAUPACA        CLOUDY    40  34  77 SW8       29.63R
WAUTOMA        LGT RAIN  38  35  89 W10       29.65R WCI  31
6HR MIN TEMP:  36; 6HR MAX TEMP:  40;

WISC RAPIDS    CLOUDY    37  32  82 W10       29.64R WCI  30
6HR MIN TEMP:  34; 6HR MAX TEMP:  38; 6HR PCP:  0.01;

CAMP DOUGLAS   CLOUDY    37  36  93 SW9       29.65R WCI  31
$$

WIZ011>013-019>022-031-037>040-048>050-280100-
NORTHEAST WISCONSIN

CITY           SKY/WX    TMP DP  RH WIND       PRES   REMARKS
ANTIGO         LGT SNOW  31  30  96 W15       29.57R WCI  20
SHAWANO        DRIZZLE   39  34  81 W8G17     29.61R WCI  33
OCONTO         NOT AVBL
STURGEON BAY   LGT RAIN  39  33  79 SW8       29.62R WCI  33
6HR MIN TEMP:  37; 6HR MAX TEMP:  41; 6HR PCP:  0.03;

GREEN BAY      CLOUDY    42  35  76 W14       29.62R
6HR MIN TEMP:  38; 6HR MAX TEMP:  42; 6HR PCP:  0.03;

MANITOWOC      NOT AVBL
APPLETON       CLOUDY    39  30  70 W15       29.60R WCI  31
CLINTONVILLE   CLOUDY    37  32  81 W12       29.61R WCI  30
OSHKOSH        CLOUDY    41  34  76 SW5       29.63R
6HR MIN TEMP:  36; 6HR MAX TEMP:  41; 6HR PCP: TRACE;

$$

WIZ032>034-041-042-053>061-280100-
SOUTHWEST WISCONSIN

CITY           SKY/WX    TMP DP  RH WIND       PRES   REMARKS
LA CROSSE      CLOUDY    40  31  70 W10       29.68R WCI  33
6HR MIN TEMP:  40; 6HR MAX TEMP:  43; 6HR PCP:  0.01;

SPARTA         CLOUDY    38  33  82 W9        29.67R WCI  31
VIROQUA        CLOUDY    37  33  85 W14       29.66R WCI  28
BOSCOBEL       CLOUDY    41  31  67 SW12      29.72R
6HR MIN TEMP:  41; 6HR MAX TEMP:  44; 6HR PCP: TRACE;

PRAIRIE DU CHI CLOUDY    39  29  66 SW10      29.72R WCI  32
PLATTEVILLE    CLOUDY    40  34  77 W12       29.72R WCI  33
$$

WIZ056-057-062-063-064-067-068-280100-
SOUTH CENTRAL WISCONSIN

CITY           SKY/WX    TMP DP  RH WIND       PRES   REMARKS
REEDSBURG      NOT AVBL
BARABOO/DELLS  CLOUDY    40  32  73 W8        29.65R WCI  35
LONE ROCK      NOT AVBL
MINERAL POINT  CLOUDY    41  34  75 W16G23    29.69R
MADISON        CLOUDY    41  33  73 SW9G23    29.68R
6HR MIN TEMP:  39; 6HR MAX TEMP:  44; 6HR PCP: TRACE;

MIDDLETON      CLOUDY    42  34  73 SW10G16   29.68R
WATERTOWN      CLOUDY    41  37  86 SW17      29.67R
MONROE         CLOUDY    39  32  75 SW22      29.71R WCI  29
JANESVILLE     CLOUDY    43  36  75 W14G20    29.71R
$$

WIZ051-052-058>065-066-070>072-280100-
SOUTHEAST WISCONSIN

CITY           SKY/WX    TMP DP  RH WIND       PRES   REMARKS
MILWAUKEE      CLOUDY    45  37  73 SW16G22   29.68R
6HR MIN TEMP:  44; 6HR MAX TEMP:  47; 6HR PCP: TRACE;

WAUKESHA       CLOUDY    41  34  75 SW15G21   29.68R
MILWAUKEE/TIMM CLOUDY    43  34  70 SW14G24   29.68R
RACINE         CLOUDY    44  34  67 SW10G21   29.71R
6HR MIN TEMP:  43; 6HR MAX TEMP:  45; 6HR PCP: TRACE;

KENOSHA        CLOUDY    43  35  73 SW15G23   29.70R
6HR MIN TEMP:  43; 6HR MAX TEMP:  45; 6HR PCP: TRACE;

FOND DU LAC    LGT RAIN  41  35  79 SW7       29.65R
6HR MIN TEMP:  37; 6HR MAX TEMP:  42; 6HR PCP:  0.01;

SHEBOYGAN      LGT RAIN  42  38  85 SW8       29.65R
6HR MIN TEMP:  39; 6HR MAX TEMP:  43; 6HR PCP: TRACE;

WEST BEND      LGT RAIN  41  37  87 W8        29.65R
JUNEAU         CLOUDY    41  34  76 SW20      29.67R
$$

LSZ147-162-280100-
LAKE SUPERIOR

STATION/POSITION TIME  TEMP    WIND        PRES    WAVE
                       AIR SEA DIR/SP/G            HT/PER
                 (UTC) (F)     (DEG/KT/KT) (MB)    (FT/S)
DEVILS ISLAND    2300   31     280/ 16/ 18 1001.6R
PORT WING        2340   32     270/ 10/ 17 1002.4R
SAXON HARBOR     2330   30     230/  5/  9 1002.0R
$$

LMZ867-665-643>646-280100-
LAKE MICHIGAN

STATION/POSITION TIME  TEMP    WIND        PRES    WAVE
                       AIR SEA DIR/SP/G            HT/PER
                 (UTC) (F)     (DEG/KT/KT) (MB)    (FT/S)
CHAMBERS ISLAND  2340   37     220/  8/ 14 1002.0R
N MID LAKE BUOY  2250   37 37  240/ 16/ 17 1002.0R   4/ 6
NORTHPORT PIER   2340   37     240/  5/ 10 1002.4R
KEWAUNEE LAKESHO 2330   42     260/ 12/ 15 1002.5R
SHEBOYGAN LAKESH 2300   43     240/ 11/ 13 1003.7R
PORT WASHINGTON  2340   45     240/  7/ 14 1005.1S
MILWAUKEE LAKESH 2330   45     240/ 15/ 22   N/A
S MID LAKE BUOY  2250   43 41  250/ 12/ 16 1006.0R   3/ 5
KENOSHA   LAKESH 2300   44     230/ 15/ 19 1006.1
$$

TC  - TEMPERATURE IN CELSIUS
VSB - VISIBILITY IN STATUTE MILES
WCI - WIND CHILL INDEX
HX  - HEAT INDEX





USA.gov is the U.S. government's official web portal to all federal, state and local government web resources and services.